カタログに戻る

QIANFAN-52

運用中通信PO
NORAD 62253·PAYLOAD·🇨🇳 China

打ち上げ Dec 5, 2024 から Taiyuan Satellite Launch Center

Loading…

次のパス (今後24時間)

TLE

最新Source: Space-Track

元期: Sep 14, 2026, 12:57 UTC

1 62253U 24232S   26257.53964770  .00000096  00000-0  13030-3 0  9999
2 62253  89.0154  13.4190 0017241 114.4142 245.8811 13.51030011105186

AllMySatでQIANFAN-52をリアルタイム追跡

Download on the App Store